Location: Dattensoll
(49.9928°N, 9.8954°E)
Time: 01:18:47
(UTC+00:00)

Lacrosse 5 rocket - Pass Details

Date: 19 May 2025
Orbit: 419 x 515 km, 57.0° (Epoch: 23 June)

Event Time Altitude Azimuth Distance (km) Brightness Sun altitude
Rises 21:24:56 0° 295° (WNW) 2,474 5.5 -15.8°
Reaches altitude 10° 21:27:32 10° 276° (W) 1,575 4.1 -16.0°
Maximum altitude 21:30:01 18° 231° (SW) 1,142 2.8 -16.1°
Enters shadow 21:30:40 17° 216° (SW) 1,170 2.7 -16.2°
